Regional Weather Roundup
Issued by NWS Charleston, WV

Home | Current Version | Previous Version | Graphics & Text | Print | Product List | Glossary On
Versions: 1 2 3 4 5 6 7 8 9 10 11 12 13 14 15 16 17 18 19 20 21 22 23 24 25 26 27 28 29 30 31 32 33 34 35 36 37 38 39 40 41 42 43 44 45 46 47 48 49 50
814
ASUS41 KRLX 110610
RWRRLX
West Virginia Regional Weather Roundup
National Weather Service Charleston WV
100 AM EST THU FEB 11 2016

Note: "fair" indicates few or no clouds below 12,000 feet with no
significant weather and/or obstructions to visibility.

WVZ003-110700-
Northern Panhandle of West Virginia

CITY           SKY/WX    TMP DP  RH WIND       PRES   REMARKS
WHEELING       CLOUDY    13   5  70 W10G23    29.98S WCI   0
$$

WVZ009-110700-
Northwest West Virginia

CITY           SKY/WX    TMP DP  RH WIND       PRES   REMARKS
PARKERSBURG    MOCLDY    13   4  67 W10       30.11S WCI   0
$$

WVZ006-110700-
Western West Virginia

CITY           SKY/WX    TMP DP  RH WIND       PRES   REMARKS
HUNTINGTON     FLURRIES  18   8  65 W7        30.13R WCI   9
$$

WVZ015-110700-
West Central West Virginia

CITY           SKY/WX    TMP DP  RH WIND       PRES   REMARKS
CHARLESTON     LGT SNOW  17  10  74 SW10      30.11S WCI   5
$$

WVZ022-031-110700-
North Central West Virginia

CITY           SKY/WX    TMP DP  RH WIND       PRES   REMARKS
CLARKSBURG     CLOUDY    13   5  70 W13       30.03R WCI  -2
MORGANTOWN     CLOUDY    14   4  64 VRB7      30.00R WCI   4
$$

WVZ025-035-042-045-110700-
Southern West Virginia

CITY           SKY/WX    TMP DP  RH WIND       PRES   REMARKS
BECKLEY        LGT SNOW  10   5  80 W6        29.98S WCI   0
LOGAN          CLOUDY    16   9  73 W8        30.07S WCI   5
BLUEFIELD      LGT SNOW  10   3  73 W13G20    29.95S WCI  -5
LEWISBURG      CLOUDY    14   4  65 W13G20    29.97S WCI   0
$$

WVZ047-110700-
Northern Mountains of West Virginia

CITY           SKY/WX    TMP DP  RH WIND       PRES   REMARKS
ELKINS         CLOUDY    11   1  64 W10G20    29.97R WCI  -3
$$

WVZ052-110700-
Eastern Panhandle of West Virginia

CITY           SKY/WX    TMP DP  RH WIND       PRES   REMARKS
MARTINSBURG      N/A     20   5  52 W18G26    29.95R WCI   5
PETERSBURG     FLURRIES  19   6  57 CALM      29.99R
$$




USA.gov is the U.S. government's official web portal to all federal, state and local government web resources and services.